コルレヴィッチ-ユーリッチ彗星

183P/Korlevic-Juric (2017)

English version
Home page
Updated on May 22, 2017

---------------------------------------------------------------------

・ プロフィール

・ 写真集

・ 軌道要素

Epoch 2017 Nov. 23.0 TT = JDT 2458080.5
T 2017 Nov. 11.31442 TT                                 MPC
q   3.8723555            (2000.0)            P               Q
n   0.10364347     Peri.  161.25680     -0.97303458     -0.22832331
a   4.4885709      Node     5.84596     +0.14812600     -0.72735878
e   0.1372854      Incl.   18.75250     +0.17681178     -0.64716124
P   9.51
From 157 observations 1954 Feb. 26-2009 May 11, mean residual 0".7.

・ 光度変化

        m1 = 4.0 + 5 logΔ + 20 log r

---------------------------------------------------------------------

軌道要素はM.P.E.C. 2014-J102に掲載されたものです。
光度グラフはComet for Windowsで作成したものです。

---------------------------------------------------------------------

Copyright(C) Seiichi Yoshida (comet@aerith.net). All rights reserved.